Weather History for KIYA - March, 2014

Change the Weather History Date:

Monday, March 10, 2014

  Actual Average (KARA) Record (KARA)
Temperature  
Mean Temperature 63 °F 61 °F  
Max Temperature 71 °F 71 °F 83 °F (2000)
Min Temperature 55 °F 50 °F 29 °F (1996)
Degree Days  
Heating Degree Days 2 5  
Month to date heating degree days 63  
Since 1 July heating degree days 1279  
Cooling Degree Days 0 1  
Month to date cooling degree days 10  
Year to date cooling degree days 41  
Growing Degree Days 13 (Base 50)    
Moisture  
Dew Point 24 °F    
Average Humidity 26    
Maximum Humidity 63    
Minimum Humidity 4    
Precipitation  
Precipitation 0.00 in 0.11 in 1.30 in (1994)
Month to date precipitation 1.35  
Year to date precipitation 10.76  
Sea Level Pressure  
Sea Level Pressure 30.09 in    
Wind  
Wind Speed 3 mph (North)    
Max Wind Speed 8 mph    
Max Gust Speed -    
Visibility 8 miles    
Events Fog    
T = Trace of Precipitation, MM = Missing Value Source: NWS Daily Summary

Daily Weather History Graph

Daily Weather History Graph

Search for Another Location

Airport or City:

Trip Planner

Search our weather history database for the weather conditions in past years. The results will help you decide how hot, cold, wet, or windy it might be!

Date:

Astronomy

Mar. 10, 2014 Rise Set
Actual Time 7:24 AM CDT 7:13 PM CDT
Civil Twilight 7:00 AM CDT 7:37 PM CDT
Nautical Twilight 6:32 AM CDT 8:05 PM CDT
Astronomical Twilight 6:04 AM CDT 8:32 PM CDT
Moon 2:14 PM CDT (3/10) 3:18 AM CDT (3/10)
Length of Visible Light 12h 37m
Length of Day
11h 49m
Waxing Gibbous, 70% of the Moon is Illuminated
Mar 10
Waxing Gibbous
Mar 16
Full
Mar 23
Last Quarter
Mar 30
New
Apr 7
First Quarter

Hourly Weather History & Observations

Time (CDT) Temp. Dew Point Humidity Pressure Visibility Wind Dir Wind Speed Gust Speed Precip Events Conditions
12:15 AM 56.3 °F 39.0 °F 52% 30.18 in 10.0 mi Calm Calm - N/A   Clear
12:35 AM 55.0 °F 42.8 °F 63% 30.18 in 10.0 mi Calm Calm - N/A   Clear
12:55 AM - - N/A% 30.17 in 10.0 mi Calm Calm - N/A   Clear
1:15 AM - - N/A% 30.17 in 10.0 mi Calm Calm - N/A   Clear
1:40 AM - - N/A% 30.16 in 5.0 mi Calm Calm - N/A   Haze
1:55 AM - - N/A% 30.16 in 5.0 mi Calm Calm - N/A   Haze
2:15 AM - - N/A% 30.16 in 5.0 mi Calm Calm - N/A   Haze
2:35 AM - - N/A% 30.16 in 7.0 mi North 4.6 mph - N/A   Clear
2:55 AM - - N/A% 30.15 in 10.0 mi North 5.8 mph - N/A   Clear
3:15 AM - - N/A% 30.15 in 10.0 mi NNW 3.5 mph - N/A   Clear
3:35 AM - - N/A% 30.14 in 7.0 mi NNW 3.5 mph - N/A   Clear
3:55 AM - - N/A% 30.13 in 7.0 mi NNW 4.6 mph - N/A   Clear
4:15 AM - - N/A% 30.13 in 5.0 mi North 4.6 mph - N/A   Haze
4:35 AM - - N/A% 30.13 in 7.0 mi North 3.5 mph - N/A   Clear
4:55 AM - - N/A% 30.12 in 4.0 mi NNW 5.8 mph - N/A   Haze
5:15 AM - - N/A% 30.13 in 3.0 mi NNW 5.8 mph - N/A   Clear
5:35 AM - - N/A% 30.13 in 3.0 mi NNW 5.8 mph - N/A   Clear
5:55 AM - - N/A% 30.14 in 1.2 mi North 3.5 mph - N/A   Mist
6:15 AM - - N/A% 30.15 in 1.0 mi North 3.5 mph - N/A   Mist
6:35 AM - - N/A% 30.15 in 0.2 mi North 3.5 mph - N/A Fog Fog
6:55 AM - - N/A% 30.16 in 0.2 mi North 3.5 mph - N/A Fog Fog
7:15 AM - - N/A% 30.16 in 0.2 mi North 3.5 mph - N/A Fog Fog
7:35 AM - - N/A% 30.16 in 0.2 mi NNW 3.5 mph - N/A Fog Fog
7:55 AM - - N/A% 30.16 in 0.2 mi NNW 3.5 mph - N/A Fog Fog
8:15 AM - - N/A% 30.17 in 0.2 mi Calm Calm - N/A Fog Fog
8:35 AM - - N/A% 30.17 in 2.5 mi North 3.5 mph - N/A   Mostly Cloudy
8:55 AM - - N/A% 30.17 in 4.0 mi Calm Calm - N/A   Haze
9:15 AM - - N/A% 30.17 in 7.0 mi NNE 3.5 mph - N/A   Clear
9:35 AM - - N/A% 30.17 in 10.0 mi North 5.8 mph - N/A   Clear
9:55 AM 57.4 °F 44.1 °F 61% 30.16 in 10.0 mi NNE 6.9 mph - N/A   Clear
10:15 AM 61.2 °F 35.1 °F 38% 30.16 in 10.0 mi NNE 5.8 mph - N/A   Clear
10:35 AM 63.3 °F 30.2 °F 29% 30.17 in 10.0 mi NE 4.6 mph - N/A   Clear
10:55 AM 65.1 °F 26.8 °F 24% 30.16 in 10.0 mi NE 4.6 mph - N/A   Clear
11:15 AM 66.2 °F 22.3 °F 19% 30.16 in 10.0 mi NE 4.6 mph - N/A   Clear
11:35 AM 67.5 °F 14.2 °F 13% 30.15 in 10.0 mi NE 3.5 mph - N/A   Clear
11:55 AM 68.2 °F 9.5 °F 10% 30.14 in 10.0 mi Calm Calm - N/A   Clear
12:15 PM 70.3 °F 2.1 °F 7% 30.13 in 10.0 mi ENE 3.5 mph - N/A   Clear
12:35 PM 70.5 °F -4.2 °F 5% 30.13 in 10.0 mi Calm Calm - N/A   Clear
12:55 PM 71.4 °F -13.2 °F 4% 30.12 in 10.0 mi North 4.6 mph - N/A   Clear
1:15 PM - - N/A% 30.10 in 10.0 mi Calm Calm - N/A   Clear
1:35 PM - - N/A% 30.09 in 10.0 mi Calm Calm - N/A   Clear
1:55 PM - - N/A% 30.09 in 10.0 mi SW 3.5 mph - N/A   Clear
2:15 PM - - N/A% 30.06 in 10.0 mi Calm Calm - N/A   Clear
2:35 PM - - N/A% 30.04 in 10.0 mi South 5.8 mph - N/A   Clear
2:55 PM - - N/A% 30.02 in 10.0 mi Calm Calm - N/A   Clear
3:15 PM - - N/A% 30.02 in 10.0 mi SW 4.6 mph - N/A   Clear
3:35 PM - - N/A% 30.01 in 10.0 mi South 8.1 mph - N/A   Clear
3:55 PM - - N/A% 30.00 in 10.0 mi Calm Calm - N/A   Clear
4:15 PM - - N/A% 30.00 in 10.0 mi South 6.9 mph - N/A   Clear
4:35 PM - - N/A% 30.00 in 10.0 mi South 3.5 mph - N/A   Clear
4:55 PM - - N/A% 30.00 in 10.0 mi South 6.9 mph - N/A   Clear
5:15 PM - - N/A% 30.00 in 10.0 mi South 8.1 mph - N/A   Clear
5:35 PM - - N/A% 30.00 in 10.0 mi South 6.9 mph - N/A   Scattered Clouds
5:55 PM - - N/A% 30.00 in 10.0 mi South 6.9 mph - N/A   Mostly Cloudy
6:15 PM - - N/A% 30.00 in 10.0 mi South 6.9 mph - N/A   Clear
6:35 PM - - N/A% 29.99 in 10.0 mi South 4.6 mph - N/A   Mostly Cloudy
6:55 PM 69.4 °F 7.7 °F 9% 29.99 in 10.0 mi South 4.6 mph - N/A   Overcast
7:15 PM 67.5 °F 17.1 °F 14% 29.98 in 10.0 mi South 5.8 mph - N/A   Overcast
7:35 PM 66.9 °F 20.3 °F 17% 29.99 in 10.0 mi South 5.8 mph - N/A   Overcast
7:55 PM 66.2 °F 21.0 °F 18% 29.98 in 10.0 mi South 4.6 mph - N/A   Overcast
8:15 PM 65.7 °F 19.9 °F 17% 29.98 in 10.0 mi South 4.6 mph - N/A   Overcast
8:35 PM 65.3 °F 21.2 °F 19% 29.99 in 10.0 mi South 4.6 mph - N/A   Overcast
8:55 PM 64.2 °F 25.3 °F 23% 30.00 in 10.0 mi South 4.6 mph - N/A   Mostly Cloudy
9:15 PM 62.8 °F 28.6 °F 27% 30.00 in 10.0 mi Calm Calm - N/A   Scattered Clouds
9:35 PM 61.3 °F 30.2 °F 31% 30.00 in 10.0 mi South 3.5 mph - N/A   Clear
9:55 PM 60.8 °F 30.2 °F 31% 30.00 in 10.0 mi South 4.6 mph - N/A   Clear
10:15 PM 60.3 °F 31.6 °F 34% 30.00 in 10.0 mi South 4.6 mph - N/A   Scattered Clouds
10:35 PM 59.9 °F 33.8 °F 38% 30.00 in 10.0 mi South 3.5 mph - N/A   Scattered Clouds
10:55 PM 61.2 °F 36.7 °F 40% 29.99 in 7.0 mi South 5.8 mph - N/A   Mostly Cloudy
11:15 PM 61.9 °F 34.7 °F 36% 29.98 in 3.0 mi SSE 5.8 mph - N/A   Haze
11:35 PM 62.2 °F 33.8 °F 35% 29.98 in 7.0 mi SSE 8.1 mph - N/A   Overcast